Waarnemingen

Advertentie
Mijn weer
Rostherne No 2, Groot Brittannië (3351): temperatuur & dauwpunt: 13.06.2019 17:00:00 - 19.06.2019 17:00:00 (BST)Rostherne No 2, Groot Brittannië (3351): windsnelheid: 13.06.2019 17:00:00 - 19.06.2019 17:00:00 (BST)Rostherne No 2, Groot Brittannië (3351): windrichting: 13.06.2019 17:00:00 - 19.06.2019 17:00:00 (BST)Rostherne No 2, Groot Brittannië (3351): luchtdruk: 13.06.2019 17:00:00 - 19.06.2019 17:00:00 (BST)Rostherne No 2, Groot Brittannië (3351): zicht: 13.06.2019 17:00:00 - 19.06.2019 17:00:00 (BST)Rostherne No 2, Groot Brittannië (3351): Zonneschijnduur: 13.06.2019 17:00:00 - 19.06.2019 17:00:00 (BST)Rostherne No 2, Groot Brittannië (3351): neerslag: 13.06.2019 17:00:00 - 19.06.2019 17:00:00 (BST)
Datum & Tijd tt [°C] td [°C] ff [km/u] ff [kn] dd ppp [hPa] vv [km] sd [min] rr [mm]
19.06.2019 17:00:00 - - - - - - - - -
19.06.2019 16:00:00 17,4 11,7 15 8 W 1008,0 40 0 0,0
19.06.2019 15:00:00 18,8 12,0 9 5 NW 1007,9 40 6 0,0
19.06.2019 14:00:00 18,7 11,5 11 6 NW 1008,2 45 6 0,0
19.06.2019 13:00:00 18,4 11,1 9 5 NW 1008,2 27 0 0,0
19.06.2019 12:00:00 17,6 11,5 11 6 NW 1008,3 45 12 0,0
19.06.2019 11:00:00 16,0 11,9 5 3 NW 1008,4 50 12 0,0
19.06.2019 10:00:00 14,4 10,0 9 5 NNW 1008,5 50 0 0,2
19.06.2019 09:00:00 13,5 11,0 8 4 NNW 1008,5 35 0 0,0
19.06.2019 08:00:00 12,5 11,4 9 5 NW 1008,5 24 0 0,0
19.06.2019 07:00:00 11,8 11,1 8 4 NNW 1008,5 14 0 0,2
19.06.2019 06:00:00 11,5 11,0 8 4 WNW 1008,9 14 0 0,2
19.06.2019 05:00:00 11,6 11,3 8 4 WNW 1008,7 7 0 0,0
19.06.2019 04:00:00 11,8 11,5 9 5 NW 1008,8 5 0 0,0
19.06.2019 03:00:00 12,3 11,9 5 3 W 1009,5 6 0 0,2
19.06.2019 02:00:00 12,8 12,4 4 2 NW 1009,9 6 0 0,0
19.06.2019 01:00:00 13,0 12,4 2 1 WNW 1010,2 5 - 0,2
19.06.2019 00:00:00 13,2 12,4 4 2 W 1010,9 10 0 0,0
18.06.2019 23:00:00 13,9 13,3 8 4 W 1011,1 10 0 0,2
18.06.2019 22:00:00 14,3 13,8 4 2 Z 1011,4 7 0 1,8
18.06.2019 21:00:00 14,8 13,1 9 5 ZZO 1011,3 4,8 0 0,6
18.06.2019 20:00:00 17,2 12,8 2 1 ONO 1011,1 45 0 0,0
18.06.2019 19:00:00 18,0 12,7 2 1 NNW 1011,3 50 0 0,0
18.06.2019 18:00:00 18,7 12,9 4 2 WNW 1011,5 45 0 0,0
18.06.2019 17:00:00 18,6 12,7 4 2 WZW 1011,9 40 0 0,0
18.06.2019 16:00:00 17,9 11,3 8 4 ZW 1012,6 35 0 0,0
18.06.2019 15:00:00 17,9 11,7 8 4 ZW 1012,9 50 0 0,0
18.06.2019 14:00:00 18,2 11,5 8 4 ZW 1013,2 30 6 0,0
18.06.2019 13:00:00 17,8 11,0 9 5 ZW 1013,4 40 6 0,0
18.06.2019 12:00:00 18,2 11,5 11 6 WZW 1013,6 19 48 0,0
18.06.2019 11:00:00 17,1 10,0 13 7 WZW 1013,6 20 60 0,0
18.06.2019 10:00:00 15,8 11,2 9 5 ZW 1014,0 30 30 0,0
18.06.2019 09:00:00 14,2 11,7 5 3 ZZW 1014,3 35 0 0,0
18.06.2019 08:00:00 12,5 10,4 9 5 ZZW 1014,3 30 48 0,0
18.06.2019 07:00:00 12,3 11,0 9 5 Z 1014,1 30 18 0,0
18.06.2019 06:00:00 11,2 10,1 5 3 Z 1014,0 30 6 0,0
18.06.2019 05:00:00 10,8 9,8 9 5 Z 1014,1 30 0 0,0
18.06.2019 04:00:00 11,8 10,9 8 4 ZZW 1014,2 35 0 0,0
18.06.2019 03:00:00 11,5 10,8 8 4 Z 1014,4 23 0 0,0
18.06.2019 02:00:00 11,5 11,0 5 3 ZW 1014,6 23 0 0,0
18.06.2019 01:00:00 10,6 10,2 5 3 Z 1014,9 14 - 0,0
18.06.2019 00:00:00 11,6 11,0 4 2 ZW 1014,9 20 0 0,0
17.06.2019 23:00:00 12,5 11,5 5 3 Z 1014,9 26 0 0,0
17.06.2019 22:00:00 13,7 12,4 5 3 ZZW 1014,6 25 6 0,0
17.06.2019 21:00:00 14,2 12,5 5 3 ZZW 1014,1 35 6 0,2
17.06.2019 20:00:00 15,0 13,7 8 4 ZW 1014,0 40 0 1,8
17.06.2019 19:00:00 15,3 13,4 9 5 ZZW 1014,0 45 0 0,2
17.06.2019 18:00:00 15,2 13,8 13 7 WZW 1014,1 3,7 0 1,2
17.06.2019 17:00:00 15,3 13,2 15 8 WZW 1013,9 7 0 0,2
17.06.2019 16:00:00 17,3 12,7 13 7 ZZW 1013,7 30 24 0,0
17.06.2019 15:00:00 18,2 13,5 15 8 ZZW 1014,0 35 30 0,0
17.06.2019 14:00:00 16,7 11,5 16 9 ZZW 1014,2 35 36 0,0
17.06.2019 13:00:00 16,9 11,5 18 10 ZZW 1014,4 30 18 0,0
17.06.2019 12:00:00 15,7 12,1 13 7 ZZW 1014,4 40 0 0,0
17.06.2019 11:00:00 14,3 11,9 13 7 ZZW 1014,2 40 0 0,0
17.06.2019 10:00:00 13,7 13,1 9 5 ZZW 1014,2 19 0 0,2
17.06.2019 09:00:00 12,8 12,2 9 5 Z 1013,7 4,7 0 0,0
17.06.2019 08:00:00 12,0 11,4 9 5 Z 1013,7 40 0 0,6
17.06.2019 07:00:00 12,0 11,3 9 5 ZZW 1013,7 4,3 0 0,4
17.06.2019 06:00:00 12,0 11,0 11 6 ZW 1013,4 19 0 1,0
17.06.2019 05:00:00 12,5 11,5 11 6 W 1013,2 2,2 0 0,2
17.06.2019 04:00:00 13,9 11,0 16 9 Z 1012,6 45 0 0,0
17.06.2019 03:00:00 14,0 10,9 21 11 Z 1012,5 50 0 0,0
17.06.2019 02:00:00 13,8 11,1 22 12 Z 1012,4 45 0 0,0
17.06.2019 01:00:00 13,9 10,8 16 9 Z 1012,7 30 - 0,0
17.06.2019 00:00:00 14,5 10,2 22 12 Z 1012,5 50 0 0,0
16.06.2019 23:00:00 14,6 11,1 18 10 Z 1012,5 50 0 0,0
16.06.2019 22:00:00 15,1 11,5 22 12 Z 1012,5 50 0 0,0
16.06.2019 21:00:00 15,6 11,6 21 11 Z 1012,2 40 0 0,0
16.06.2019 20:00:00 16,0 11,4 16 9 Z 1012,3 50 0 0,0
16.06.2019 19:00:00 15,3 11,2 15 8 ZZW 1012,4 45 0 0,2
16.06.2019 18:00:00 16,8 10,3 15 8 ZZW 1012,5 35 6 0,0
16.06.2019 17:00:00 17,7 10,2 16 9 ZW 1012,3 30 18 0,0
16.06.2019 16:00:00 16,5 11,9 16 9 W 1012,3 30 24 0,4
16.06.2019 15:00:00 15,4 11,9 16 9 ZZW 1012,3 29 18 0,0
16.06.2019 14:00:00 13,2 11,2 16 9 Z 1012,4 11 0 0,8
16.06.2019 13:00:00 15,7 10,5 18 10 Z 1012,2 45 6 0,0
16.06.2019 12:00:00 14,9 11,1 15 8 Z 1012,5 40 12 0,0
16.06.2019 11:00:00 13,7 10,5 18 10 Z 1012,7 30 0 0,0
16.06.2019 10:00:00 13,4 10,3 15 8 Z 1012,7 35 0 0,0
16.06.2019 09:00:00 11,8 9,5 16 9 Z 1012,7 30 0 0,0
16.06.2019 08:00:00 11,5 10,1 13 7 Z 1012,5 18 6 0,0
16.06.2019 07:00:00 10,5 9,1 13 7 Z 1012,3 24 30 0,0
16.06.2019 06:00:00 8,7 7,9 9 5 Z 1012,2 35 6 0,0
16.06.2019 05:00:00 8,4 7,1 9 5 Z 1012,2 40 0 0,0
16.06.2019 04:00:00 8,5 7,5 11 6 Z 1012,1 30 0 0,0
16.06.2019 03:00:00 7,3 7,2 8 4 ZZO 1012,3 23 0 0,0
16.06.2019 02:00:00 7,0 6,8 4 2 OZO 1012,4 4,5 0 0,0
16.06.2019 01:00:00 7,4 7,2 8 4 ZZO 1012,3 4,2 - 0,0
16.06.2019 00:00:00 8,7 7,9 2 1 Z 1012,0 11 0 0,0
15.06.2019 23:00:00 10,7 10,0 4 2 ZZW 1011,8 15 0 0,6
15.06.2019 22:00:00 11,4 10,9 9 5 ZW 1011,5 4,7 0 1,6
15.06.2019 21:00:00 11,6 10,0 4 2 ZZO 1010,9 26 18 0,0
15.06.2019 20:00:00 13,3 10,1 2 1 NO 1010,7 40 6 0,0
15.06.2019 19:00:00 13,0 10,5 5 3 N 1010,4 28 0 0,0
15.06.2019 18:00:00 13,4 11,1 11 6 N 1010,1 30 0 0,0
15.06.2019 17:00:00 15,9 13,2 11 6 ZZO 1009,6 40 18 0,0
15.06.2019 16:00:00 14,3 13,2 9 5 ZZO 1009,9 40 6 0,6
15.06.2019 15:00:00 14,4 13,7 13 7 ZZO 1009,7 28 0 1,6
15.06.2019 14:00:00 12,2 11,5 9 5 ZZW 1010,0 6 0 3,8
15.06.2019 13:00:00 14,9 10,7 21 11 Z 1009,7 45 0 0,0
15.06.2019 12:00:00 15,6 10,9 22 12 Z 1009,2 50 6 0,0
15.06.2019 11:00:00 14,2 10,6 22 12 Z 1009,2 30 0 0,0
15.06.2019 10:00:00 14,0 10,5 21 11 Z 1009,2 35 0 0,0
15.06.2019 09:00:00 13,0 10,4 21 11 Z 1008,8 35 0 0,0
15.06.2019 08:00:00 12,0 9,9 16 9 Z 1008,9 24 0 0,0
15.06.2019 07:00:00 11,4 9,8 16 9 ZZO 1008,9 21 0 0,0
15.06.2019 06:00:00 10,3 9,1 16 9 ZZO 1009,0 19 0 0,0
15.06.2019 05:00:00 10,8 9,7 11 6 ZZO 1009,0 24 0 0,0
15.06.2019 04:00:00 10,7 9,6 8 4 ZZO 1009,2 21 0 0,0
15.06.2019 03:00:00 10,7 10,1 11 6 ZZO 1009,5 23 0 0,0
15.06.2019 02:00:00 11,0 10,6 8 4 ZZO 1009,7 13 0 0,0
15.06.2019 01:00:00 10,7 9,7 8 4 ZZO 1009,7 25 - 0,0
15.06.2019 00:00:00 12,3 11,3 8 4 Z 1009,3 40 0 0,0
14.06.2019 23:00:00 11,6 11,2 9 5 ZZO 1009,4 26 0 0,0
14.06.2019 22:00:00 11,9 11,3 9 5 Z 1009,1 45 0 0,0
14.06.2019 21:00:00 13,0 12,1 9 5 Z 1008,6 50 0 0,0
14.06.2019 20:00:00 13,3 12,5 5 3 Z 1008,4 29 0 0,6
14.06.2019 19:00:00 12,9 12,0 11 6 Z 1008,4 6 0 4,8
14.06.2019 18:00:00 16,3 9,5 8 4 Z 1007,7 30 0 0,0
14.06.2019 17:00:00 16,6 9,4 5 3 ZZW 1007,7 30 0 0,0
14.06.2019 16:00:00 16,0 9,0 11 6 Z 1007,6 29 0 0,0
14.06.2019 15:00:00 15,9 8,7 13 7 ZZW 1007,7 29 18 0,0
14.06.2019 14:00:00 15,9 7,5 9 5 ZW 1007,5 35 30 0,0
14.06.2019 13:00:00 15,9 9,8 13 7 ZW 1007,3 29 60 0,0
14.06.2019 12:00:00 14,2 8,7 11 6 WZW 1007,4 35 54 0,0
14.06.2019 11:00:00 13,0 10,0 9 5 WZW 1006,9 50 12 0,2
14.06.2019 10:00:00 12,0 10,3 13 7 Z 1006,3 35 0 0,2
14.06.2019 09:00:00 11,2 10,5 9 5 Z 1005,9 19 0 0,2
14.06.2019 08:00:00 10,5 10,1 11 6 Z 1005,5 14 0 0,8
14.06.2019 07:00:00 10,0 9,7 15 8 ZZO 1005,6 9 0 1,4
14.06.2019 06:00:00 9,8 9,6 11 6 Z 1005,5 8 0 1,0
14.06.2019 05:00:00 9,6 9,3 8 4 ZZO 1005,5 5 0 0,8
14.06.2019 04:00:00 9,6 9,2 8 4 Z 1005,5 8 0 0,4
14.06.2019 03:00:00 9,7 9,2 4 2 ZO 1005,6 7 0 0,2
14.06.2019 02:00:00 9,9 9,2 2 1 WNW 1006,0 4,5 0 0,4
14.06.2019 01:00:00 10,2 9,2 4 2 ZW 1006,1 22 - 0,0
14.06.2019 00:00:00 10,2 9,0 5 3 ZZW 1006,1 30 0 0,0
13.06.2019 23:00:00 9,8 8,9 5 3 ZO 1006,0 30 0 0,0
13.06.2019 22:00:00 9,9 8,5 5 3 Z 1005,9 27 0 0,0
13.06.2019 21:00:00 10,2 8,0 8 4 W 1005,1 50 0 0,0
13.06.2019 20:00:00 11,0 8,2 13 7 WNW 1004,6 45 6 0,0
13.06.2019 19:00:00 11,6 9,6 15 8 WNW 1004,1 50 0 0,2
13.06.2019 18:00:00 11,8 10,2 15 8 W 1003,8 19 0 0,4
13.06.2019 17:00:00 11,6 10,5 13 7 WNW 1003,7 14 0 0,4

tt = temperatuur
td = dauwpunt
ff = windsnelheid
dd = windrichting
ppp = luchtdruk
vv = zicht
sd = Zonneschijnduur
rr = neerslag

Weerstations in de omgeving